Tracking 19146 objects as of 24-Apr-2018
HD Live streaming from Space Station
objects crossing your sky now

FENGYUN 1C DEB

Track FENGYUN 1C DEB now!
10-day predictions


NORAD ID: 31427
Int'l Code: 1999-025BTP
Perigee: 772.2 km
Apogee: 845.1 km
Inclination: 98.8 °
Period: 100.9 minutes
Semi major axis: 7179 km
RCS: 0.0039 m2 (small)
Launch date: May 10, 1999
Source: People's Republic of China (PRC)
Launch site: Taiyaun Space Center, China (TSC)

Note: This is SATELLITE DEBRIS
aabbcc
Your satellite tracking list
Your tracking list is empty




NASA's NSSDC Master Catalog

Two Line Element Set (TLE):
1 31427U 99025BTP 18113.07750854 +.00000837 +00000-0 +35741-3 0  9993
2 31427 098.8167 160.0832 0050829 325.4403 064.1648 14.27079380568833
Source of the keplerian elements: AFSPC